NDF72T LHBP-EDDM

Flight info

Callsign NDF72T
Flight time 0h 58m
Altitude 34000
Route GILEP2B GILEP DCT ZOLKU DCT ARSIN DCT SITNI DCT BAGSI DCT MATIG DCT AMADI Q113 NAPSA NAPSA4A
Aircraft A319/M-SDE3FGHIRWY/LB1

Departure

Time 2026-05-04 12:37
Airport Budapest Liszt Ferenc International Airport (LHBP)

Arrival

Time 2026-05-04 13:35
Airport Munich Airport (EDDM)
Time Latitude Longitude Altitude Speed Heading
2026-05-04 12:36 47.32235 19.34450 8229 ft 275 kts 246°
2026-05-04 12:37 47.31424 19.31650 9232 ft 280 kts 244°
2026-05-04 12:37 47.30572 19.29027 10141 ft 286 kts 241°
2026-05-04 12:37 47.29600 19.26354 10568 ft 309 kts 239°
2026-05-04 12:37 47.28481 19.23545 11154 ft 322 kts 237°
2026-05-04 12:38 47.27293 19.20705 11966 ft 328 kts 236°
2026-05-04 12:38 47.26066 19.17842 12804 ft 333 kts 236°
2026-05-04 12:38 47.24810 19.14948 13636 ft 338 kts 236°
2026-05-04 12:38 47.23535 19.12015 14399 ft 342 kts 236°
2026-05-04 12:39 47.22248 19.09040 15125 ft 347 kts 238°
2026-05-04 12:39 47.21260 19.05780 15829 ft 353 kts 254°
2026-05-04 12:39 47.20947 19.02185 16548 ft 358 kts 271°
2026-05-04 12:39 47.21358 18.98576 17274 ft 362 kts 288°
2026-05-04 12:40 47.22471 18.95256 18000 ft 366 kts 305°
2026-05-04 12:40 47.24031 18.92279 18709 ft 368 kts 308°
2026-05-04 12:40 47.25622 18.89303 19370 ft 371 kts 308°
2026-05-04 12:40 47.27231 18.86287 20040 ft 373 kts 308°
2026-05-04 12:41 47.28840 18.83260 20718 ft 376 kts 308°
2026-05-04 12:41 47.30457 18.80215 21377 ft 379 kts 308°
2026-05-04 12:41 47.32083 18.77150 22026 ft 382 kts 308°
2026-05-04 12:41 47.33723 18.74056 22682 ft 384 kts 308°
2026-05-04 12:42 47.35367 18.70952 23299 ft 387 kts 308°
2026-05-04 12:42 47.37016 18.67833 23880 ft 390 kts 308°
2026-05-04 12:42 47.38692 18.64659 24417 ft 393 kts 308°
2026-05-04 12:42 47.40348 18.61451 24946 ft 395 kts 304°
2026-05-04 12:43 47.41700 18.57911 25463 ft 397 kts 294°
2026-05-04 12:43 47.42625 18.54054 25965 ft 400 kts 287°
2026-05-04 12:43 47.43424 18.50106 26473 ft 402 kts 287°
2026-05-04 12:43 47.44231 18.46144 26967 ft 404 kts 288°
2026-05-04 12:44 47.45043 18.42156 27454 ft 406 kts 288°
2026-05-04 12:44 47.45858 18.38153 27956 ft 408 kts 288°
2026-05-04 12:44 47.46681 18.34108 28428 ft 410 kts 288°
2026-05-04 12:44 47.47498 18.30070 28893 ft 412 kts 288°
2026-05-04 12:45 47.48321 18.25990 29348 ft 415 kts 287°
2026-05-04 12:45 47.49089 18.21915 29792 ft 418 kts 286°
2026-05-04 12:45 47.49803 18.17731 30209 ft 421 kts 285°
2026-05-04 12:45 47.50478 18.13502 30578 ft 423 kts 284°
2026-05-04 12:46 47.51138 18.09244 30929 ft 425 kts 284°
2026-05-04 12:46 47.51803 18.04988 31038 ft 425 kts 284°
2026-05-04 12:46 47.52482 18.00722 31061 ft 425 kts 284°
2026-05-04 12:47 47.53864 17.92222 31059 ft 425 kts 284°
2026-05-04 12:47 47.55256 17.83719 31056 ft 424 kts 284°
2026-05-04 12:48 47.55802 17.75006 31056 ft 426 kts 272°
2026-05-04 12:48 47.55913 17.66236 31056 ft 426 kts 272°
2026-05-04 12:49 47.56027 17.57498 31055 ft 425 kts 272°
2026-05-04 12:49 47.56128 17.48728 31055 ft 425 kts 272°
2026-05-04 12:50 47.56216 17.39981 31052 ft 425 kts 272°
2026-05-04 12:50 47.56303 17.31222 31047 ft 425 kts 272°
2026-05-04 12:51 47.56388 17.22499 31042 ft 425 kts 272°
2026-05-04 12:51 47.56471 17.13748 31036 ft 425 kts 272°
2026-05-04 12:52 47.56543 17.04998 31026 ft 424 kts 272°
2026-05-04 12:52 47.56606 16.96256 31022 ft 424 kts 271°
2026-05-04 12:53 47.56659 16.87579 31023 ft 424 kts 271°
2026-05-04 12:53 47.56738 16.78840 31016 ft 423 kts 275°
2026-05-04 12:54 47.58035 16.70383 31016 ft 421 kts 291°
2026-05-04 12:54 47.60169 16.62299 31011 ft 421 kts 291°
2026-05-04 12:55 47.62296 16.54222 31013 ft 420 kts 291°
2026-05-04 12:55 47.64413 16.46133 31011 ft 420 kts 291°
2026-05-04 12:56 47.66520 16.38043 31006 ft 420 kts 291°
2026-05-04 12:56 47.68621 16.29944 31006 ft 421 kts 291°
2026-05-04 12:57 47.70368 16.23197 31001 ft 421 kts 291°
2026-05-04 12:57 47.72812 16.13758 31004 ft 422 kts 291°
2026-05-04 12:58 47.74915 16.05596 31001 ft 422 kts 291°
2026-05-04 12:58 47.76663 15.98765 31001 ft 422 kts 291°
2026-05-04 12:59 47.78751 15.90589 30998 ft 423 kts 291°
2026-05-04 12:59 47.80821 15.82456 30994 ft 423 kts 291°
2026-05-04 13:00 47.82899 15.74259 30992 ft 423 kts 291°
2026-05-04 13:00 47.84970 15.66062 30991 ft 423 kts 291°
2026-05-04 13:01 47.87035 15.57849 30989 ft 423 kts 291°
2026-05-04 13:01 47.89098 15.49637 30988 ft 424 kts 290°
2026-05-04 13:02 47.91158 15.41404 30981 ft 423 kts 290°
2026-05-04 13:02 47.93207 15.33177 30978 ft 423 kts 290°
2026-05-04 13:03 47.95250 15.24944 30982 ft 423 kts 290°
2026-05-04 13:03 47.97289 15.16714 30979 ft 422 kts 290°
2026-05-04 13:04 47.99320 15.08475 30976 ft 422 kts 290°
2026-05-04 13:04 48.01336 15.00232 30973 ft 422 kts 289°
2026-05-04 13:05 48.03346 14.91987 30970 ft 422 kts 289°
2026-05-04 13:05 48.05134 14.83649 30964 ft 421 kts 281°
2026-05-04 13:06 48.05497 14.74914 30968 ft 421 kts 271°
2026-05-04 13:06 48.05558 14.66168 30967 ft 421 kts 271°
2026-05-04 13:07 48.05625 14.57458 30963 ft 421 kts 271°
2026-05-04 13:07 48.05686 14.48700 30960 ft 421 kts 271°
2026-05-04 13:08 48.05735 14.39937 30957 ft 421 kts 270°
2026-05-04 13:08 48.05775 14.31158 30953 ft 421 kts 270°
2026-05-04 13:09 48.05811 14.22388 30952 ft 421 kts 270°
2026-05-04 13:09 48.05840 14.13655 30953 ft 421 kts 270°
2026-05-04 13:10 48.05860 14.04873 30952 ft 421 kts 270°
2026-05-04 13:10 48.05876 13.96118 30957 ft 421 kts 270°
2026-05-04 13:11 48.05888 13.87376 30959 ft 421 kts 270°
2026-05-04 13:11 48.05886 13.78659 30960 ft 421 kts 270°
2026-05-04 13:12 48.05884 13.69916 30964 ft 421 kts 270°
2026-05-04 13:12 48.05871 13.61164 30961 ft 420 kts 270°
2026-05-04 13:13 48.05884 13.52421 30959 ft 420 kts 271°
2026-05-04 13:13 48.06265 13.43731 30964 ft 420 kts 275°
2026-05-04 13:14 48.06842 13.35075 30792 ft 413 kts 275°
2026-05-04 13:14 48.07112 13.30839 30543 ft 402 kts 275°
2026-05-04 13:14 48.07350 13.26730 30297 ft 391 kts 274°
2026-05-04 13:14 48.07564 13.22725 30051 ft 383 kts 274°
2026-05-04 13:15 48.07766 13.18769 29775 ft 379 kts 274°
2026-05-04 13:15 48.07963 13.14842 29491 ft 377 kts 274°
2026-05-04 13:15 48.08158 13.10934 29211 ft 376 kts 274°
2026-05-04 13:15 48.08351 13.07053 28934 ft 374 kts 273°
2026-05-04 13:16 48.08543 13.03174 28659 ft 373 kts 273°
2026-05-04 13:16 48.08734 12.99311 28387 ft 371 kts 273°
2026-05-04 13:16 48.08925 12.95473 28116 ft 370 kts 273°
2026-05-04 13:16 48.09119 12.91635 27847 ft 369 kts 274°
2026-05-04 13:17 48.09381 12.87820 27585 ft 368 kts 276°
2026-05-04 13:17 48.09722 12.84083 27325 ft 366 kts 277°
2026-05-04 13:17 48.10109 12.80305 27068 ft 365 kts 277°
2026-05-04 13:17 48.10501 12.76550 26812 ft 364 kts 277°
2026-05-04 13:18 48.10882 12.72819 26561 ft 363 kts 277°
2026-05-04 13:18 48.11249 12.69076 26307 ft 362 kts 276°
2026-05-04 13:18 48.11601 12.65363 26058 ft 361 kts 276°
2026-05-04 13:18 48.11947 12.61634 25813 ft 359 kts 276°
2026-05-04 13:19 48.12287 12.57941 25567 ft 358 kts 276°
2026-05-04 13:19 48.12627 12.54245 25319 ft 357 kts 276°
2026-05-04 13:19 48.12965 12.50574 25083 ft 356 kts 276°
2026-05-04 13:19 48.13302 12.46900 24769 ft 356 kts 276°
2026-05-04 13:20 48.13638 12.43198 24181 ft 359 kts 276°
2026-05-04 13:20 48.14160 12.39575 23607 ft 364 kts 287°
2026-05-04 13:20 48.15296 12.36150 22941 ft 370 kts 302°
2026-05-04 13:20 48.16998 12.33274 22261 ft 369 kts 317°
2026-05-04 13:21 48.19147 12.31152 21601 ft 368 kts 331°
2026-05-04 13:21 48.21448 12.29515 20958 ft 363 kts 332°
2026-05-04 13:21 48.23685 12.27904 20339 ft 356 kts 329°
2026-05-04 13:21 48.25689 12.25754 19721 ft 345 kts 312°
2026-05-04 13:22 48.27152 12.22995 19128 ft 335 kts 297°
2026-05-04 13:22 48.28062 12.19829 18533 ft 327 kts 282°
2026-05-04 13:22 48.28398 12.16546 17919 ft 320 kts 268°
2026-05-04 13:22 48.28235 12.13199 17239 ft 315 kts 261°
2026-05-04 13:23 48.27991 12.09945 16595 ft 313 kts 261°
2026-05-04 13:23 48.27753 12.06713 15961 ft 311 kts 261°
2026-05-04 13:23 48.27514 12.03485 15336 ft 310 kts 261°
2026-05-04 13:23 48.27276 12.00317 14733 ft 309 kts 261°
2026-05-04 13:24 48.27035 11.97115 14132 ft 307 kts 261°
2026-05-04 13:24 48.26795 11.93932 13512 ft 306 kts 261°
2026-05-04 13:24 48.26558 11.90764 12854 ft 305 kts 261°
2026-05-04 13:25 48.26082 11.84505 11569 ft 300 kts 261°
2026-05-04 13:25 48.25842 11.81399 10944 ft 298 kts 261°
2026-05-04 13:25 48.25604 11.78327 10338 ft 295 kts 261°
2026-05-04 13:25 48.25370 11.75292 9852 ft 289 kts 261°
2026-05-04 13:26 48.25142 11.72336 9328 ft 282 kts 261°
2026-05-04 13:26 48.24914 11.69427 8820 ft 282 kts 261°
2026-05-04 13:26 48.24683 11.66495 8308 ft 284 kts 262°
2026-05-04 13:26 48.24450 11.63534 7802 ft 287 kts 262°
2026-05-04 13:27 48.24218 11.60559 7307 ft 288 kts 262°
2026-05-04 13:27 48.23989 11.57603 6815 ft 280 kts 262°
2026-05-04 13:27 48.23765 11.54722 6334 ft 276 kts 262°
2026-05-04 13:27 48.23527 11.51884 5819 ft 272 kts 262°
2026-05-04 13:28 48.23274 11.49059 5320 ft 273 kts 262°
2026-05-04 13:28 48.23161 11.46221 5038 ft 275 kts 276°
2026-05-04 13:28 48.23761 11.43531 4999 ft 274 kts 303°
2026-05-04 13:28 48.25100 11.41586 5004 ft 273 kts 329°
2026-05-04 13:29 48.26830 11.40458 5005 ft 271 kts 347°
2026-05-04 13:29 48.28700 11.40313 5006 ft 269 kts 10°
2026-05-04 13:29 48.30532 11.40877 5004 ft 269 kts 14°
2026-05-04 13:29 48.32324 11.41676 5001 ft 269 kts 25°
2026-05-04 13:30 48.33765 11.43401 4999 ft 267 kts 58°
2026-05-04 13:30 48.34266 11.45981 4995 ft 252 kts 92°
2026-05-04 13:30 48.34047 11.48491 4990 ft 234 kts 94°
2026-05-04 13:30 48.34181 11.50902 4811 ft 229 kts 81°
2026-05-04 13:31 48.34417 11.53286 4529 ft 231 kts 81°
2026-05-04 13:31 48.34622 11.55695 4203 ft 231 kts 82°
2026-05-04 13:31 48.34808 11.58041 3908 ft 219 kts 83°
2026-05-04 13:31 48.34984 11.60266 3632 ft 207 kts 82°
2026-05-04 13:32 48.35148 11.62354 3410 ft 195 kts 83°
2026-05-04 13:32 48.35304 11.64324 3111 ft 188 kts 83°
2026-05-04 13:32 48.35454 11.66226 2891 ft 177 kts 83°
2026-05-04 13:32 48.35591 11.67987 2661 ft 162 kts 82°
2026-05-04 13:33 48.35716 11.69579 2477 ft 146 kts 81°
2026-05-04 13:33 48.35833 11.71051 2261 ft 137 kts 82°
2026-05-04 13:33 48.35940 11.72443 2075 ft 132 kts 83°
2026-05-04 13:33 48.36047 11.73781 1895 ft 127 kts 83°
2026-05-04 13:34 48.36154 11.75101 1744 ft 127 kts 83°
2026-05-04 13:34 48.36253 11.76422 1595 ft 126 kts 83°
2026-05-04 13:34 48.36351 11.77693 1480 ft 111 kts 83°
2026-05-04 13:34 48.36401 11.78374 1485 ft 84 kts 84°
2026-05-04 13:35 48.36449 11.79003 1481 ft 45 kts 83°
2026-05-04 13:35 48.36331 11.79667 1478 ft 23 kts 114°
2026-05-04 13:35 48.36288 11.79791 1485 ft 19 kts 129°
2026-05-04 13:36 48.36182 11.79841 1480 ft 14 kts 175°
2026-05-04 13:36 48.36129 11.79801 1479 ft 8 kts 248°
2026-05-04 13:36 48.36124 11.79716 1479 ft 9 kts 263°
2026-05-04 13:36 48.36116 11.79618 1485 ft 10 kts 264°
2026-05-04 13:37 48.36106 11.79506 1475 ft 11 kts 246°
2026-05-04 13:37 48.36033 11.79489 1480 ft 12 kts 172°
2026-05-04 13:37 48.35945 11.79505 1476 ft 14 kts 173°
2026-05-04 13:37 48.35840 11.79522 1479 ft 16 kts 174°
2026-05-04 13:38 48.35802 11.79649 1482 ft 16 kts 81°
2026-05-04 13:38 48.35815 11.79816 1479 ft 17 kts 84°
2026-05-04 13:38 48.35827 11.79990 1485 ft 14 kts 85°
2026-05-04 13:38 48.35759 11.80071 1476 ft 14 kts 174°
2026-05-04 13:39 48.35661 11.80068 1479 ft 14 kts 182°
2026-05-04 13:39 48.35598 11.80069 1481 ft 6 kts 212°
2026-05-04 13:39 48.35588 11.80017 1485 ft 5 kts 264°
2026-05-04 13:39 48.35587 11.79996 1473 ft 0 kts 264°